Weather History for Waycross, GA

Change the Weather History Date:

Wednesday, February 13, 2013

  Actual Average (KAMG) Record (KAMG)
Temperature  
Mean Temperature 66 °F 54 °F  
Max Temperature 82 °F 65 °F 80 °F (1976)
Min Temperature 51 °F 43 °F 18 °F (1955)
Degree Days  
Heating Degree Days 0 11  
Month to date heating degree days 161  
Since 1 July heating degree days 1250  
Cooling Degree Days 2 0  
Month to date cooling degree days 0  
Year to date cooling degree days 5  
Growing Degree Days 16 (Base 50)    
Moisture  
Dew Point 58 °F    
Average Humidity 69    
Maximum Humidity 94    
Minimum Humidity 37    
Precipitation  
Precipitation 0.00 in 0.13 in 1.73 in (1960)
Month to date precipitation 1.73  
Year to date precipitation 5.99  
Snow  
Snow 0.00 in 0.00 in 0.00 in ()
Month to date snowfall 0.0  
Since 1 July snowfall 0.1  
Snow Depth -    
Sea Level Pressure  
Sea Level Pressure 29.83 in    
Wind  
Wind Speed 14 mph (WSW)    
Max Wind Speed 21 mph    
Max Gust Speed 29 mph    
Visibility 10 miles    
Events      
T = Trace of Precipitation, MM = Missing Value Source: NWS Daily Summary

Daily Weather History Graph

Daily Weather History Graph

Search for Another Location

Airport:

Trip Planner

Search our weather history database for the weather conditions in past years. The results will help you decide how hot, cold, wet, or windy it might be!

Date:

Astronomy

Feb. 13, 2013 Rise Set
Actual Time 7:12 AM EST 6:15 PM EST
Civil Twilight 6:47 AM EST 6:40 PM EST
Nautical Twilight 6:19 AM EST 7:08 PM EST
Astronomical Twilight 5:50 AM EST 7:37 PM EST
Moon 8:59 AM EST (2/13) 9:56 PM EST (2/13)
Length of Visible Light 11h 52m
Length of Day
11h 03m
Waxing Crescent, 13% of the Moon is Illuminated
Feb 13
Waxing Crescent
Feb 17
First Quarter
Feb 25
Full
Mar 4
Last Quarter
Mar 11
New

Hourly Weather History & Observations

Time (EST) Temp. Heat Index Dew Point Humidity Pressure Visibility Wind Dir Wind Speed Gust Speed Precip Events Conditions
12:15 AM 69.8 °F - 66.2 °F 88% 29.79 in 7.0 mi SSW 18.4 mph 28.8 mph N/A   Overcast
12:35 AM 69.8 °F - 66.2 °F 88% 29.80 in 7.0 mi SW 17.3 mph - N/A   Overcast
12:55 AM 69.8 °F - 68.0 °F 94% 29.79 in 7.0 mi SW 9.2 mph - N/A   Overcast
1:15 AM 71.6 °F - 68.0 °F 88% 29.79 in 10.0 mi SW 10.4 mph - N/A   Overcast
1:35 AM 71.6 °F - 68.0 °F 88% 29.78 in 10.0 mi SSW 13.8 mph 18.4 mph N/A   Overcast
1:55 AM 71.6 °F - 68.0 °F 88% 29.78 in 10.0 mi SW 15.0 mph 19.6 mph N/A   Overcast
2:15 AM 71.6 °F - 68.0 °F 88% 29.78 in 10.0 mi SW 12.7 mph 17.3 mph N/A   Overcast
2:35 AM 71.6 °F - 68.0 °F 88% 29.77 in 10.0 mi SW 12.7 mph - N/A   Overcast
2:55 AM 71.6 °F - 68.0 °F 88% 29.77 in 10.0 mi SW 11.5 mph - N/A   Overcast
3:15 AM 71.6 °F - 68.0 °F 88% 29.76 in 10.0 mi SW 10.4 mph - N/A   Overcast
3:35 AM 71.6 °F - 68.0 °F 88% 29.76 in 10.0 mi SW 16.1 mph 24.2 mph N/A   Overcast
3:55 AM 71.6 °F - 68.0 °F 88% 29.76 in 10.0 mi SW 17.3 mph 26.5 mph N/A   Overcast
4:15 AM 71.6 °F - 68.0 °F 88% 29.76 in 10.0 mi SW 18.4 mph 24.2 mph N/A   Overcast
4:35 AM 71.6 °F - 68.0 °F 88% 29.76 in 5.0 mi WSW 13.8 mph 21.9 mph N/A   Overcast
4:55 AM 69.8 °F - 68.0 °F 94% 29.73 in 10.0 mi South 8.1 mph - N/A   Overcast
5:15 AM 69.8 °F - 68.0 °F 94% - 7.0 mi West 9.2 mph 20.7 mph N/A   Overcast
5:35 AM 71.6 °F - 68.0 °F 88% - 10.0 mi WSW 10.4 mph - N/A   Overcast
5:55 AM 71.6 °F - 68.0 °F 88% - 10.0 mi SW 13.8 mph 20.7 mph N/A   Overcast
6:15 AM 71.6 °F - 68.0 °F 88% 29.77 in 10.0 mi WSW 13.8 mph 21.9 mph N/A   Overcast
6:35 AM 73.4 °F - 68.0 °F 83% 29.78 in 10.0 mi WSW 15.0 mph 21.9 mph N/A   Overcast
6:55 AM 73.4 °F - 68.0 °F 83% 29.78 in 10.0 mi WSW 12.7 mph 19.6 mph N/A   Overcast
7:15 AM 73.4 °F - 68.0 °F 83% 29.79 in 10.0 mi WSW 13.8 mph - N/A   Overcast
7:35 AM 73.4 °F - 68.0 °F 83% 29.80 in 10.0 mi WSW 10.4 mph 18.4 mph N/A   Overcast
7:55 AM 73.4 °F - 68.0 °F 83% 29.81 in 10.0 mi WSW 10.4 mph - N/A   Overcast
8:15 AM 73.4 °F - 69.8 °F 88% 29.81 in 10.0 mi WSW 9.2 mph - N/A   Overcast
8:35 AM 73.4 °F - 69.8 °F 88% 29.82 in 10.0 mi WSW 11.5 mph - N/A   Overcast
8:55 AM 73.4 °F - 69.8 °F 88% 29.82 in 10.0 mi WSW 10.4 mph 16.1 mph N/A   Overcast
9:15 AM 73.4 °F - 69.8 °F 88% 29.82 in 10.0 mi WSW 11.5 mph - N/A   Scattered Clouds
9:35 AM 75.2 °F - 69.8 °F 83% 29.82 in 7.0 mi WSW 15.0 mph 18.4 mph N/A   Mostly Cloudy
9:55 AM 75.2 °F - 68.0 °F 78% 29.82 in 10.0 mi West 16.1 mph 23.0 mph N/A   Scattered Clouds
10:15 AM 75.2 °F - 66.2 °F 73% 29.82 in 10.0 mi West 15.0 mph 20.7 mph N/A   Scattered Clouds
10:35 AM 75.2 °F - 66.2 °F 73% 29.83 in 10.0 mi West 13.8 mph 24.2 mph N/A   Scattered Clouds
10:55 AM 75.2 °F - 66.2 °F 73% 29.84 in 10.0 mi West 18.4 mph 23.0 mph N/A   Scattered Clouds
11:15 AM 78.8 °F - 64.4 °F 61% 29.83 in 10.0 mi West 16.1 mph 25.3 mph N/A   Clear
11:35 AM 78.8 °F - 64.4 °F 61% 29.82 in 10.0 mi West 15.0 mph 21.9 mph N/A   Clear
11:55 AM 80.6 °F 81.8 °F 62.6 °F 54% 29.81 in 10.0 mi West 16.1 mph 23.0 mph N/A   Clear
12:15 PM 80.6 °F 81.5 °F 60.8 °F 51% 29.80 in 10.0 mi West 12.7 mph 17.3 mph N/A   Clear
12:35 PM 80.6 °F 80.8 °F 57.2 °F 45% 29.79 in 10.0 mi West 19.6 mph 27.6 mph N/A   Clear
12:55 PM 82.4 °F 82.5 °F 59.0 °F 45% 29.79 in 10.0 mi West 16.1 mph 21.9 mph N/A   Clear
1:15 PM 80.6 °F 80.8 °F 57.2 °F 45% 29.78 in 10.0 mi WSW 11.5 mph 20.7 mph N/A   Clear
1:35 PM 80.6 °F - 51.8 °F 37% 29.77 in 10.0 mi West 18.4 mph 25.3 mph N/A   Clear
1:55 PM 78.8 °F - 51.8 °F 39% 29.76 in 10.0 mi WSW 11.5 mph 19.6 mph N/A   Scattered Clouds
2:15 PM 80.6 °F - 51.8 °F 37% 29.76 in 10.0 mi West 17.3 mph 21.9 mph N/A   Scattered Clouds
2:35 PM 77.0 °F - 51.8 °F 41% 29.76 in 10.0 mi West 16.1 mph 21.9 mph N/A   Scattered Clouds
2:55 PM 75.2 °F - 48.2 °F 38% 29.79 in 10.0 mi West 20.7 mph 25.3 mph N/A   Mostly Cloudy
3:15 PM 73.4 °F - 48.2 °F 41% 29.81 in 10.0 mi West 17.3 mph 23.0 mph N/A   Overcast
3:35 PM 73.4 °F - 48.2 °F 41% 29.81 in 10.0 mi West 10.4 mph 18.4 mph N/A   Overcast
3:55 PM 73.4 °F - 48.2 °F 41% 29.82 in 10.0 mi West 16.1 mph 21.9 mph N/A   Overcast
4:15 PM 71.6 °F - 46.4 °F 41% 29.84 in 10.0 mi West 12.7 mph 19.6 mph N/A   Overcast
4:35 PM 71.6 °F - 44.6 °F 38% 29.85 in 10.0 mi West 15.0 mph 21.9 mph N/A   Overcast
4:55 PM 69.8 °F - 44.6 °F 40% 29.85 in 10.0 mi West 17.3 mph 21.9 mph N/A   Overcast
5:15 PM 69.8 °F - 44.6 °F 40% 29.86 in 10.0 mi West 11.5 mph 20.7 mph N/A   Overcast
5:35 PM 68.0 °F - 44.6 °F 43% 29.86 in 10.0 mi West 10.4 mph 18.4 mph N/A   Overcast
5:55 PM 68.0 °F - 44.6 °F 43% 29.86 in 10.0 mi West 10.4 mph - N/A   Overcast
6:15 PM 68.0 °F - 46.4 °F 46% 29.86 in 10.0 mi West 16.1 mph - N/A   Overcast
6:35 PM 66.2 °F - 46.4 °F 49% 29.87 in 10.0 mi West 12.7 mph 24.2 mph N/A   Overcast
6:55 PM 66.2 °F - 46.4 °F 49% 29.87 in 10.0 mi West 10.4 mph - N/A   Overcast
7:15 PM 64.4 °F - 46.4 °F 52% 29.87 in 10.0 mi West 13.8 mph 19.6 mph N/A   Overcast
7:35 PM 64.4 °F - 46.4 °F 52% 29.88 in 10.0 mi West 13.8 mph 25.3 mph N/A   Overcast
7:55 PM 64.4 °F - 46.4 °F 52% 29.89 in 10.0 mi West 19.6 mph 28.8 mph N/A   Overcast
8:15 PM 62.6 °F - 46.4 °F 55% 29.89 in 10.0 mi WNW 13.8 mph - N/A   Overcast
8:35 PM 62.6 °F - 48.2 °F 59% 29.89 in 10.0 mi WNW 10.4 mph 16.1 mph N/A   Overcast
8:55 PM 60.8 °F - 48.2 °F 63% 29.90 in 10.0 mi WNW 12.7 mph - N/A   Overcast
9:15 PM 60.8 °F - 48.2 °F 63% 29.91 in 10.0 mi WNW 16.1 mph 26.5 mph N/A   Overcast
9:35 PM 57.2 °F - 51.8 °F 82% 29.93 in 10.0 mi WNW 16.1 mph 24.2 mph N/A   Overcast
9:55 PM 55.4 °F - 51.8 °F 88% 29.93 in 10.0 mi WNW 11.5 mph 20.7 mph N/A   Overcast
10:15 PM 55.4 °F - 51.8 °F 88% 29.94 in 10.0 mi WNW 12.7 mph 18.4 mph N/A   Overcast
10:35 PM 53.6 °F - 48.2 °F 82% 29.94 in 10.0 mi NW 9.2 mph - N/A   Overcast
10:55 PM 53.6 °F - 46.4 °F 77% 29.95 in 10.0 mi WNW 9.2 mph - N/A   Overcast
11:15 PM 51.8 °F - 46.4 °F 82% 29.94 in 10.0 mi WNW 8.1 mph - N/A   Mostly Cloudy
11:35 PM 51.8 °F - 46.4 °F 82% 29.96 in 10.0 mi WNW 8.1 mph - N/A   Overcast
11:55 PM 51.8 °F - 46.4 °F 82% 29.96 in 10.0 mi West 4.6 mph - N/A   Mostly Cloudy